Weather History for Naples, FL

Change the Weather History Date:

Sunday, January 8, 2012

  Actual Average Record
Temperature  
Mean Temperature 65 °F 64 °F  
Max Temperature 79 °F 75 °F 86 °F (1974)
Min Temperature 51 °F 54 °F 37 °F (1970)
Degree Days  
Heating Degree Days 0 4  
Month to date heating degree days 51 26  
Since 1 July heating degree days 76 104  
Cooling Degree Days 0 3  
Month to date cooling degree days 4 24  
Year to date cooling degree days 4 24  
Growing Degree Days 15 (Base 50)    
Moisture  
Dew Point 53 °F    
Average Humidity 66    
Maximum Humidity 93    
Minimum Humidity 39    
Precipitation  
Precipitation 0.00 in 0.06 in 2.13 in (1945)
Month to date precipitation 0.00 0.45  
Year to date precipitation 0.00 0.45  
Snow  
Snow 0.00 in - - ()
Month to date snowfall 0.0  
Since 1 July snowfall 0.0  
Snow Depth 0.00 in    
Sea Level Pressure  
Sea Level Pressure 30.19 in    
Wind  
Wind Speed 4 mph (ENE)    
Max Wind Speed 15 mph    
Max Gust Speed 18 mph    
Visibility 10 miles    
Events      
T = Trace of Precipitation, MM = Missing Value Source: NWS Daily Summary

Daily Weather History Graph

Daily Weather History Graph

Search for Another Location

Airport:

Trip Planner

Search our weather history database for the weather conditions in past years. The results will help you decide how hot, cold, wet, or windy it might be!

Date:

Astronomy

Jan. 08, 2012 Rise Set
Actual Time 7:15 AM EST 5:51 PM EST
Civil Twilight 6:50 AM EST 6:16 PM EST
Nautical Twilight 6:22 AM EST 6:45 PM EST
Astronomical Twilight 5:54 AM EST 7:13 PM EST
Moon 5:32 PM EST (1/8) 6:33 AM EST (1/8)
Length of Visible Light 11h 25m
Length of Day
10h 35m
Full, 100% of the Moon is Illuminated
Jan 8
Full
Jan 9
Full
Jan 16
Last Quarter
Jan 23
New
Jan 30
First Quarter

Hourly Weather History & Observations

Time (EST) Temp. Dew Point Humidity Pressure Visibility Wind Dir Wind Speed Gust Speed Precip Events Conditions
12:53 AM 55.9 °F 53.1 °F 90% 30.17 in 10.0 mi Calm Calm - N/A   Clear
1:53 AM 55.9 °F 52.0 °F 87% 30.17 in 10.0 mi NE 3.5 mph - N/A   Clear
2:53 AM 53.1 °F 50.0 °F 89% 30.17 in 10.0 mi Calm Calm - N/A   Clear
3:53 AM 53.1 °F 50.0 °F 89% 30.17 in 8.0 mi Calm Calm - N/A   Clear
4:53 AM 53.1 °F 50.0 °F 89% 30.17 in 8.0 mi Calm Calm - N/A   Clear
5:53 AM 52.0 °F 48.9 °F 89% 30.17 in 8.0 mi Calm Calm - N/A   Clear
6:53 AM 52.0 °F 48.9 °F 89% 30.19 in 10.0 mi NE 3.5 mph - N/A   Clear
7:53 AM 52.0 °F 48.9 °F 89% 30.21 in 8.0 mi ENE 3.5 mph - N/A   Clear
8:53 AM 59.0 °F 52.0 °F 78% 30.23 in 10.0 mi ENE 3.5 mph - N/A   Clear
9:53 AM 66.9 °F 54.0 °F 63% 30.24 in 10.0 mi East 6.9 mph - N/A   Clear
10:53 AM 73.0 °F 54.0 °F 51% 30.24 in 10.0 mi East 6.9 mph - N/A   Clear
11:53 AM 75.9 °F 50.0 °F 40% 30.21 in 10.0 mi ESE 10.4 mph - N/A   Clear
12:53 PM 78.1 °F 52.0 °F 40% 30.17 in 10.0 mi East 9.2 mph - N/A   Clear
1:53 PM 78.1 °F 52.0 °F 40% 30.16 in 10.0 mi ENE 5.8 mph - N/A   Partly Cloudy
2:53 PM 73.9 °F 57.0 °F 55% 30.15 in 10.0 mi West 9.2 mph - N/A   Mostly Cloudy
3:53 PM 73.4 °F 55.4 °F 53% 30.15 in 10.0 mi West 5.8 mph - N/A   Clear
4:53 PM 73.0 °F 55.9 °F 55% 30.16 in 10.0 mi WNW 6.9 mph - N/A   Partly Cloudy
5:53 PM 68.0 °F 57.0 °F 68% 30.17 in 10.0 mi WNW 3.5 mph - N/A   Clear
6:53 PM 66.0 °F 57.0 °F 73% 30.18 in 10.0 mi Calm Calm - N/A   Partly Cloudy
7:53 PM 64.9 °F 57.9 °F 78% 30.19 in 10.0 mi Calm Calm - N/A   Clear
8:53 PM 64.0 °F 57.9 °F 80% 30.20 in 10.0 mi NNE 4.6 mph - N/A   Clear
9:53 PM 62.1 °F 57.0 °F 84% 30.21 in 10.0 mi ENE 3.5 mph - N/A   Clear
10:53 PM 62.1 °F 54.0 °F 75% 30.21 in 10.0 mi ENE 3.5 mph - N/A   Clear
11:53 PM 60.8 °F 53.6 °F 77% 30.19 in 10.0 mi East 5.8 mph - N/A   Clear